GW4770 Weather Reports


Display with metric or nautical units.
time (UTC)temp
F
wind
direction
speed
MPH
gust
MPH
rain 1hr
in
rain 24hr
in
rain mn
in
humidity
%
barometer
mb
20260509024016 77 62 1.0 3.0 0.01 0.22 0.01 100 1014.8
20260509023017 0 69 2.0 3.0 0.01 0.22 0.01
20260509022015 76 40 1.0 3.0 0.00 0.21 0.00 100 1016.1
20260509021057 0 79 2.0 4.0 0.00 0.21 0.00
20260509020018 0 60 1.0 3.0 0.00 0.21 0.00
20260509015037 36 68 1.0 4.0 0.00 0.21 0.00 11 1019.1
20260509014018 0 40 1.0 2.0 0.00 0.21 0.00
20260509013037 0 34 1.0 2.0 0.00 0.21 0.00
20260509012018 0 34 1.0 2.0 0.00 0.21 0.00
20260509011017 0 45 1.0 1.0 0.00 0.21 0.00
20260509010036 0 36 1.0 2.0 0.00 0.21 0.00
20260509005017 0 31 0.0 2.0 0.00 0.21 0.00
20260509004016 0 43 0.0 0.0 0.00 0.21 0.00
20260509003017 0 18 0.0 1.0 0.00 0.21 0.00
20260509002018 0 358 0.0 1.0 0.00 0.21 0.00
20260509001019 0 55 0.0 1.0 0.00 0.21 0.00
20260509000018 0 37 1.0 2.0 0.00 0.21 0.00
20260508235037 0 44 1.0 2.0 0.00 0.21 0.00
20260508234038 0 44 1.0 2.0 0.00 0.21 0.00
20260508233017 0 33 1.0 2.0 0.00 0.21 0.00
20260508232056 0 58 1.0 4.0 0.00 0.21 0.00
20260508231017 0 57 1.0 3.0 0.00 0.21 0.00
20260508230017 0 42 1.0 2.0 0.00 0.21 0.00
20260508225017 0 43 1.0 2.0 0.00 0.21 0.00
20260508224037 0 43 1.0 1.0 0.00 0.21 0.00
20260508223018 0 57 1.0 4.0 0.00 0.21 0.00
20260508222017 0 51 1.0 2.0 0.00 0.21 0.00
20260508221018 0 34 1.0 3.0 0.00 0.21 0.00
20260508220017 0 42 1.0 2.0 0.00 0.21 0.00
20260508215018 0 51 1.0 4.0 0.00 0.21 0.00
20260508214017 0 44 1.0 2.0 0.00 0.21 0.00
20260508213018 0 63 1.0 2.0 0.00 0.21 0.00
20260508212017 0 41 1.0 3.0 0.00 0.21 0.00
20260508211018 0 101 1.0 3.0 0.00 0.21 0.00
20260508210039 0 68 1.0 4.0 0.00 0.21 0.00
20260508205018 0 90 2.0 4.0 0.00 0.21 0.00
20260508204019 0 103 3.0 4.0 0.00 0.21 0.00
20260508203018 0 92 2.0 5.0 0.00 0.21 0.00
20260508202017 0 63 2.0 4.0 0.00 0.21 0.00
20260508201018 0 64 1.0 4.0 0.00 0.21 0.00
20260508200017 0 78 2.0 5.0 0.00 0.21 0.00
20260508195016 0 60 2.0 4.0 0.00 0.21 0.00
20260508194017 0 83 2.0 4.0 0.00 0.21 0.00
20260508193016 0 65 2.0 5.0 0.00 0.21 0.00
20260508192037 0 65 2.0 5.0 0.00 0.21 0.00
20260508191016 0 75 2.0 5.0 0.00 0.21 0.00
20260508190017 0 72 2.0 5.0 0.00 0.21 0.00
20260508185016 0 58 2.0 4.0 0.00 0.21 0.00
20260508184017 0 81 3.0 6.0 0.00 0.21 0.00
20260508183016 0 93 3.0 4.0 0.00 0.21 0.00
20260508182017 0 97 2.0 5.0 0.00 0.21 0.21
20260508181017 0 87 2.0 4.0 0.00 0.21 0.21
20260508180016 0 102 3.0 5.0 0.00 0.21 0.21
20260508175017 0 97 2.0 5.0 0.00 0.21 0.21
20260508174018 0 97 2.0 5.0 0.00 0.21 0.21
20260508173019 0 93 3.0 8.0 0.00 0.21 0.21
20260508172018 0 101 2.0 4.0 0.00 0.21 0.21
20260508171017 0 81 2.0 4.0 0.00 0.21 0.21
20260508170018 0 83 3.0 5.0 0.00 0.21 0.21
20260508165017 0 88 3.0 5.0 0.00 0.21 0.21
20260508164018 0 78 2.0 4.0 0.00 0.21 0.21
20260508163017 0 72 2.0 4.0 0.00 0.21 0.21
20260508162016 0 82 3.0 5.0 0.00 0.21 0.21
20260508161017 0 95 2.0 6.0 0.00 0.21 0.21
20260508160016 0 91 3.0 7.0 0.00 0.21 0.21
20260508155018 0 93 3.0 5.0 0.00 0.21 0.21
20260508154017 0 106 2.0 5.0 0.00 0.21 0.21
20260508153018 0 107 3.0 6.0 0.00 0.21 0.21
20260508152037 0 94 3.0 7.0 0.00 0.21 0.21
20260508151018 0 84 3.0 6.0 0.00 0.21 0.21
20260508150017 0 96 3.0 5.0 0.00 0.21 0.21
20260508145016 0 92 3.0 6.0 0.00 0.21 0.21
20260508144017 0 88 3.0 6.0 0.00 0.21 0.21
20260508143016 0 89 3.0 6.0 0.00 0.21 0.21
20260508142037 0 98 3.0 7.0 0.00 0.21 0.21
20260508141017 0 77 3.0 5.0 0.00 0.21 0.21
20260508140018 0 103 3.0 6.0 0.00 0.21 0.21
20260508135017 70 90 8.0 73.0 0.00 0.21 0.21 100 1019.9
20260508134516 0 62 2.0 5.0 0.00 0.21 0.21
20260508133537 0 70 2.0 4.0 0.00 0.21 0.21
20260508132518 0 97 2.0 5.0 0.00 0.21 0.21
20260508131519 0 66 2.0 5.0 0.00 0.21 0.21
20260508130518 0 83 3.0 6.0 0.05 0.21 0.21
20260508125519 0 86 2.0 5.0 0.12 0.21 0.21
20260508124530 73 76 2.0 3.0 0.18 0.21 0.21 100 1015.9
20260508123517 73 102 2.0 10.0 0.21 0.21 0.21 100 1015.8
20260508122518 0 84 1.0 3.0 0.21 0.21 0.21
20260508121557 0 108 1.0 3.0 0.21 0.21 0.21
20260508120517 0 97 2.0 4.0 0.15 0.15 0.15
20260508115517 0 101 5.0 10.0 0.09 0.09 0.09
20260508114518 75 87 7.0 15.0 0.03 0.03 0.03 100 1013.3
20260508113524 80 97 3.0 7.0 0.00 0.00 0.00 90 1008.3
20260508112517 80 81 4.0 9.0 0.00 0.00 0.00 67 1007.9
20260508111518 81 83 3.0 6.0 0.00 0.00 0.00 58 1007.9
20260508110516 81 95 2.0 8.0 0.00 0.00 0.00 59 1007.9
20260508105517 81 94 3.0 7.0 0.00 0.00 0.00 58 1007.3
20260508104546 82 70 1.0 3.0 0.00 0.00 0.00 57 1006.3
20260508103516 82 58 2.0 4.0 0.00 0.00 0.00 56 1006.3
20260508102517 81 65 2.0 4.0 0.00 0.00 0.00 59 1007.2
20260508101516 81 59 3.0 7.0 0.00 0.00 0.00 58 1007.8
20260508100518 81 76 3.0 7.0 0.00 0.00 0.00 58 1007.4
20260508095517 83 80 3.0 5.0 0.00 0.00 0.00 55 1005.7
20260508094516 82 78 3.0 5.0 0.00 0.00 0.00 56 1006.7
20260508093516 82 74 3.0 6.0 0.00 0.00 0.00 59 1006.7
20260508092517 81 62 3.0 7.0 0.00 0.00 0.00 59 1007.4
20260508091518 82 69 2.0 5.0 0.00 0.00 0.00 59 1006.9
20260508090516 82 84 3.0 6.0 0.00 0.00 0.00 65 1006.9
20260508085517 81 78 3.0 6.0 0.00 0.00 0.00 70 1008.1
20260508084517 80 71 2.0 6.0 0.00 0.00 0.00 83 1009.9
20260508083516 81 98 3.0 6.0 0.00 0.00 0.00 76 1008.8
20260508082517 80 95 3.0 7.0 0.00 0.00 0.00 85 1010.2
20260508081518 81 80 3.0 5.0 0.00 0.00 0.00 73 1009.5
20260508080516 81 81 3.0 5.0 0.00 0.00 0.00 71 1009.3
20260508075517 81 76 3.0 5.0 0.00 0.00 0.00 69 1009.0
20260508074538 84 37 2.0 3.0 0.00 0.00 0.00 61 1006.7
20260508073516 82 96 3.0 5.0 0.00 0.00 0.00 68 1008.8
20260508072537 83 105 3.0 5.0 0.00 0.00 0.00 63 1008.0
20260508071536 82 103 3.0 6.0 0.00 0.00 0.00 64 1009.0
20260508070518 84 65 2.0 6.0 0.00 0.00 0.00 58 1007.3
20260508065517 87 76 2.0 4.0 0.00 0.00 0.00 57 1004.9
20260508064516 82 41 2.0 4.0 0.00 0.00 0.00 63 1008.9
20260508063516 83 83 3.0 7.0 0.00 0.00 0.00 64 1008.1
20260508062519 85 60 2.0 5.0 0.00 0.00 0.00 62 1006.6
20260508061518 83 73 2.0 6.0 0.00 0.00 0.00 72 1008.7
20260508060516 82 81 3.0 5.0 0.00 0.00 0.00 74 1009.8
20260508055518 85 72 2.0 5.0 0.00 0.00 0.00 59 1006.5
20260508054516 84 79 2.0 4.0 0.00 0.00 0.00 64 1008.1
20260508053537 86 76 2.0 4.0 0.00 0.00 0.00 58 1005.8
20260508052537 85 64 2.0 5.0 0.00 0.00 0.00 61 1007.5
20260508051516 86 89 2.0 4.0 0.00 0.00 0.00 67 1006.8
20260508050516 84 85 2.0 4.0 0.00 0.00 0.00 81 1008.4
20260508045517 82 66 2.0 3.0 0.00 0.00 0.00 87 1010.6
20260508044538 86 93 2.0 4.0 0.00 0.00 0.00 72 1006.6
20260508043517 84 57 1.0 3.0 0.00 0.00 0.00 85 1008.1
20260508042517 84 84 2.0 4.0 0.00 0.00 0.00 94 1008.8
20260508041518 82 72 2.0 4.0 0.00 0.00 0.00 100 1010.0
20260508040517 82 72 2.0 4.0 0.00 0.00 0.00 100 1010.6
20260508035517 80 72 1.0 3.0 0.00 0.00 0.00 100 1012.7
20260508034516 78 31 1.0 2.0 0.00 0.00 0.00 100 1014.0
20260508033517 75 94 2.0 4.0 0.00 0.00 0.00 100 1017.2
20260508032517 76 75 1.0 3.0 0.00 0.00 0.00 100 1016.1
20260508031518 76 75 2.0 4.0 0.00 0.00 0.00 100 1016.1
20260508030517 0 84 1.0 3.0 0.00 0.00 0.00
20260508025518 0 36 1.0 3.0 0.00 0.00 0.00